Regional Weather Roundup
Issued by NWS

Home | Current Version | Previous Version | Text Only | Print | Product List | Glossary On
Versions: 1 2 3 4 5 6 7 8 9 10 11 12 13 14 15 16 17 18 19 20 21 22 23 24 25 26 27 28 29 30 31 32 33 34 35 36 37 38 39 40 41 42 43 44 45 46 47 48 49 50
000
ASUS43 KIND 032309
RWRIN

WEATHER ROUNDUP FOR INDIANA
NATIONAL WEATHER SERVICE INDIANAPOLIS IN
700 PM EDT WED JUN 03 2015

NOTE: "FAIR" INDICATES FEW OR NO CLOUDS BELOW 12,000 FEET WITH NO
SIGNIFICANT WEATHER AND/OR OBSTRUCTIONS TO VISIBILITY.

* - STATION DOES NOT REPORT WEATHER SUCH AS PRECIPITATION OR FOG.

+ - STATION NOT QUALITY CONTROLLED BY THE NATIONAL WEATHER SERVICE.
    USE DATA WITH CAUTION...ESPECIALLY DEWPOINT AND RELATIVE
    HUMIDITY OBSERVATIONS.

INZ001>003-010>013-019-020-040000-
NORTHWEST INDIANA

CITY           SKY/WX    TMP DP  RH WIND       PRES   REMARKS
GARY /AIRPORT/ PTSUNNY   73  55  53 VRB5      29.99S
KNOX *+        SUNNY     73  52  46 S8        29.99F
LA PORTE +     SUNNY     77  53  44 S7        30.00F
MICHIGAN CITY+ MOSUNNY   75  52  43 SE5       30.00S
MONTICELLO +   SUNNY     73  55  53 SE7       30.00F
RENSSELAER +   SUNNY     75  52  43 S7        29.99F
VALPARAISO     SUNNY     75  53  46 S6        30.01S

$$

LMZ046-743>745-040000-
SOUTHERN LAKE MICHIGAN

STATION/POSITION TIME  TEMP    WIND        PRES    WAVE
                       AIR SEA DIR/SP/G            HT
                 (UTC) (F)     (DEG/KT/KT) (MB)    (FT)
BURNS HARBOR     2300           70/  9/ 10 1016.3F
MICHIGAN CITY    2300   60      30/ 10/ 11   N/A
5NW MICH CITY    2300   60 58   60/  8/ 10   N/A     1

$$

INZ004-005-014>016-021>024-040000-
NORTH CENTRAL INDIANA

CITY           SKY/WX    TMP DP  RH WIND       PRES   REMARKS
ELKHART        MOSUNNY   73  52  46 S10       30.03F
GOSHEN         MOSUNNY   73  57  57 SE8       30.03F
LOGANSPORT +   SUNNY     72  50  46 E8        30.03F
PERU/GRISSOM   MOSUNNY   73  57  56 CALM      30.02F
ROCHESTER +    SUNNY     73  55  53 SE6       30.03F
SOUTH BEND     SUNNY     74  55  51 SE12      30.01F
WARSAW +       CLOUDY    70  57  64 SE7       30.03F

$$

INZ006>009-017-018-025>027-040000-
NORTHEAST INDIANA

CITY           SKY/WX    TMP DP  RH WIND       PRES   REMARKS
ANGOLA *+      CLOUDY    72  63  73 CALM      30.05S
AUBURN +       CLOUDY    70  55  60 CALM      30.05S
FORT WAYNE     PTSUNNY   69  59  70 CALM      30.05S
HUNTINGTON +   CLOUDY    68  57  67 CALM      30.03F

$$

INZ028-029-035-036-043>045-051>053-040000-
WEST CENTRAL INDIANA

CITY           SKY/WX    TMP DP  RH WIND       PRES   REMARKS
CRAWFORDSVL +  SUNNY     71  47  43 CALM      30.01F
GREENCASTLE +  SUNNY     68  52  56 SE8       30.03F
LAFAYETTE      SUNNY     72  54  53 E6        30.00F
TERRE HAUTE    SUNNY     71  56  58 SE6       30.01F

$$

INZ030>032-037>040-046>048-054>057-064-065-040000-
CENTRAL INDIANA

CITY           SKY/WX    TMP DP  RH WIND       PRES   REMARKS
CP ATTERBURY + CLOUDY    68  55  64 CALM      30.04R HAZE
COLUMBUS       PTSUNNY   68  55  64 CALM      30.03S
FISHERS *+     CLOUDY    68  59  73 CALM      30.04
FRANKFORT +    SUNNY     73  54  50 CALM      30.03F
GREENWOOD *+   CLOUDY    68  54  60 CALM      30.04S
INDIANAPOLIS   NOT AVBL
-EAGLE CREEK   PTSUNNY   70  54  56 CALM      30.02F
KOKOMO *+      CLOUDY    72  55  56 SE6       30.03S
MARION +       CLOUDY    68  55  62 S3        30.04S
MT COMFORT *+  CLOUDY    68  48  49 CALM      30.04S
SHELBYVILLE    CLOUDY    71  55  56 CALM      30.03R
ZIONSVILLE +   PTSUNNY   71  54  55 CALM      30.04F

$$

INZ033-034-041-042-049-050-058-059-040000-
EAST CENTRAL INDIANA

CITY           SKY/WX    TMP DP  RH WIND       PRES   REMARKS
MUNCIE         CLOUDY    70  57  63 CALM      30.03F

$$

INZ060-061-067>069-081>083-085>088-040000-
SOUTHWEST INDIANA

CITY           SKY/WX    TMP DP  RH WIND       PRES   REMARKS
EVANSVILLE     SUNNY     72  58  61 SE8       30.01S
HUNTINGBURG *+ PTSUNNY   68  55  64 SE5       30.03S
WASHINGTON +   SUNNY     69  51  54 E5        30.01F

$$

INZ062-063-066-070>080-084-089>092-040000-
SOUTH CENTRAL AND SOUTHEAST INDIANA

CITY           SKY/WX    TMP DP  RH WIND       PRES   REMARKS
BLOOMINGTON    PTSUNNY   66  56  70 CALM      30.04S
MADISON *+     CLOUDY    68  54  60 CALM      30.04S
NORTH VERNON + CLOUDY    70  57  64 CALM      30.03S
SEYMOUR +      CLOUDY    72  55  56 CALM      30.02S

$$



USA.gov is the U.S. government's official web portal to all federal, state and local government web resources and services.